Voltar ao catálogo

STARLINK-32733

AtivoComunicaçõesVLEO
NORAD 62477·PAYLOAD·🇺🇸 United States

Lançado Dec 31, 2024 de Cape Canaveral Space Force Station

Loading…

Próximas Passagens (próximas 24 horas)

TLE

AtualizadoSource: CelesTrak SupGP

Época: Sep 15, 2026, 02:10 UTC

1 62477C 24254R   26258.09076389 -.00015863  00000+0 -57452-3 0  2586
2 62477  43.0046  26.3489 0001936 268.2602  97.3475 15.27588231    10

Acompanhe STARLINK-32733 em tempo real com AllMySat

Download on the App Store